Flag for Jordan Weather past 2 weeks in Zarqa, Jordan

Now
82 °F

Haze.


Feels Like: 80 °F
Forecast: 70 / 93 °F
Wind: 7 mph from Southwest

Location: Amman Airport

Current Time: May 27, 2015 at 10:01:44 AM

Latest Report: May 27, 2015 at 9:00 AM


Visibility: 2 mi

Pressure: 30.01 "Hg

Humidity: 23%

Dew point: 41 °F

Location of ZarqaLocation

Historic Weather in Zarqa — Graph

°F

Zarqa temperature yesterday

Maximum temperature yesterday: 91 °F (at 2:00 PM)
Minimum temperature yesterday: 72 °F (at 6:00 AM)
Average temperature yesterday: 82 °F

Past Weeks' High & Low Weather Summary

 TemperatureHumidityPressure
High97 °F (May 19, 3:00 PM)78% (May 23, 10:00 AM)30.24 "Hg (May 23, 10:00 AM)
Low55 °F (May 15, 4:00 AM)8% (May 18, 1:00 PM)29.86 "Hg (May 19, 4:00 PM)
Average74 °F32%30.02 "Hg
* Reported May 12 8:00 AM — May 27 8:00 AM, Zarqa, Weather by CustomWeather, © 2015

Note: Actual official high and low records may vary slightly from our data, if they occured in-between our weather recording intervals... More about our weather records

Advertising

Zarqa weather history for previous 24 hours

 ConditionsComfort  
Time TempWeatherWind HumidityBarometerVisibility
8:00 AM
Wed, May 27
81 °FHaze.6 mph15%29.98 "Hg2 mi
7:00 AM73 °FHaze.No wind23%29.98 "Hg1 mi
6:00 AM73 °FHaze.No wind23%29.98 "Hg1 mi
5:00 AM73 °FHaze.No wind23%29.98 "Hg3 mi
4:00 AM72 °FHaze.No wind22%29.98 "Hg2 mi
3:00 AM72 °FHaze.5 mph23%30.01 "Hg3 mi
2:00 AM72 °FHaze.No wind22%30.04 "Hg3 mi
1:00 AM73 °FHaze.No wind19%30.04 "Hg3 mi
12:00 AM77 °FHaze.No wind15%30.04 "Hg3 mi
11:00 PM
Tue, May 26
77 °FHaze.6 mph17%30.01 "Hg3 mi
10:00 PM77 °FHaze.6 mph17%30.01 "Hg3 mi
9:00 PM79 °FHaze.6 mph16%30.01 "Hg3 mi
8:00 PM82 °FHaze.12 mph16%30.01 "Hg3 mi
7:00 PM84 °FHaze.12 mph19%30.01 "Hg3 mi
6:00 PM88 °FHaze.9 mph19%30.01 "Hg3 mi
4:00 PM88 °FHaze.16 mph12%30.01 "Hg3 mi
3:00 PM90 °FHaze.16 mph10%30.01 "Hg3 mi
2:00 PM91 °FHaze.12 mph10%30.04 "Hg3 mi
1:00 PM90 °FHaze.15 mph11%30.01 "Hg3 mi
12:00 PM88 °FHaze.10 mph13%30.04 "Hg3 mi
11:00 AM84 °FHaze.9 mph18%30.04 "Hg3 mi
10:00 AM84 °FHaze.7 mph19%30.01 "Hg3 mi
Weather by CustomWeather, © 2015

See weather overviewHow to use our weather pages